Location: *
(38.9555°S, 57.3572°E)
Time: 00:31:28
(UTC+00:00)

Cosmos 1726 - Pass Details

Date: 15 July 2020
Orbit: 481 x 500 km, 82.5° (Epoch: 06 August)

Event Time Altitude Azimuth Distance (km) Brightness Sun altitude
Rises 14:38:10 0° 343° (NNW) 2,539 6.1 -17.3°
Reaches altitude 10° 14:40:16 10° 338° (NNW) 1,668 5.2 -17.7°
Maximum altitude 14:43:51 52° 260° (W) 615 2.9 -18.4°
Drops below altitude 10° 14:47:29 10° 183° (S) 1,698 4.7 -19.0°
Enters shadow 14:48:11 - 180° (S) 1,986 5.0 -19.2°
